Theta_e
328 313 307 304 295 292 290 294 299 300 303 307 315 322 324 324 321 314 339 349 355 358 361 360 361 364 362 361 361 360 359 359 359 359 359 360 360 361 362 362 362 361 359 358 356 355 353 353 353
316 309 303 298 291 287 291 297 299 302 306 309 313 328 324 320 330 338 342 352 355 359 360 359 362 363 362 361 360 359 358 358 358 358 359 360 360 360 361 362 361 359 358 357 356 355 353 352 352
318 310 297 294 288 288 292 298 301 305 307 307 307 333 333 330 339 341 349 353 357 358 359 359 362 362 361 361 360 359 358 358 358 359 358 359 360 360 360 360 360 358 358 356 355 353 352 352 352
305 300 297 290 287 291 295 300 301 302 305 308 318 323 335 341 342 348 352 355 356 357 358 361 361 362 361 361 360 359 358 358 358 359 359 359 359 359 359 359 359 358 355 354 353 352 351 351 351
301 294 288 285 287 290 295 299 300 300 301 303 308 320 332 345 350 351 351 354 354 356 358 360 361 362 361 361 360 359 358 358 359 360 359 359 358 358 358 358 358 356 354 353 352 352 352 352 352
295 292 283 285 286 294 298 299 296 296 298 300 304 317 334 348 347 348 350 351 355 356 358 359 361 361 360 361 360 359 358 358 359 359 360 359 359 358 357 358 358 357 356 354 353 352 353 353 354
292 287 284 284 288 292 295 298 295 295 296 298 305 325 334 343 347 348 348 351 354 357 356 358 359 359 361 360 359 358 358 357 358 358 359 359 359 358 357 357 358 358 357 357 356 355 354 354 353
297 292 286 287 289 290 294 297 298 296 298 306 311 323 330 341 348 346 349 350 352 354 355 355 357 357 356 356 359 358 358 357 357 358 358 358 358 358 357 354 355 357 357 357 356 355 355 354 353
300 289 288 289 290 292 294 294 301 304 301 304 308 327 338 346 346 347 346 347 349 352 352 352 354 353 353 354 356 358 358 358 358 358 358 355 349 351 354 354 356 356 355 355 355 354 353 352 352
295 291 292 294 295 292 297 296 299 302 302 303 313 335 343 345 343 342 342 341 343 345 348 349 350 352 353 355 353 351 353 352 351 351 350 346 346 346 351 352 356 356 355 354 353 353 352 351 341
291 293 298 297 299 299 297 297 301 300 300 301 309 337 341 341 342 341 341 341 341 344 346 349 347 348 350 350 352 352 351 350 349 348 345 342 344 344 346 342 345 345 351 345 347 344 344 341 339
288 293 298 298 302 300 298 300 300 300 302 304 306 335 340 339 340 340 340 341 341 343 345 347 348 348 349 349 349 349 347 347 346 345 342 338 337 338 339 339 339 343 344 343 341 339 339 338 338
292 294 296 296 299 301 303 302 300 302 306 308 307 321 338 339 340 341 342 342 341 341 345 346 348 349 349 348 347 347 345 345 344 343 341 337 334 336 337 337 340 341 341 341 340 339 337 337 338
293 295 295 296 296 296 299 300 300 304 307 305 305 331 337 338 338 338 338 338 338 341 344 346 348 348 348 346 345 345 343 343 341 340 341 338 335 334 336 335 337 339 340 340 339 339 337 336 336
296 292 295 296 296 294 297 295 297 303 305 304 303 321 336 337 338 336 337 337 337 339 342 342 342 346 345 342 344 342 342 342 341 340 340 338 336 335 337 335 335 338 340 340 339 339 338 334 337
289 288 285 293 297 297 297 290 298 301 302 301 301 305 325 332 336 337 337 336 335 336 337 338 343 342 341 340 341 340 340 339 339 339 340 339 335 336 340 338 340 344 343 340 338 337 336 336 337
286 282 285 290 298 296 296 292 298 301 300 300 299 301 318 315 324 330 336 336 335 336 336 337 339 338 336 334 337 336 336 337 338 338 340 340 338 339 344 344 344 344 341 341 340 338 340 338 337
282 284 287 288 294 294 293 294 297 299 301 300 298 299 307 311 315 334 336 336 335 335 336 338 339 336 337 336 338 340 340 338 341 339 341 342 341 348 346 346 346 344 340 339 340 338 339 337 334
288 286 286 291 296 294 294 294 296 299 296 297 296 297 299 305 311 337 336 335 334 335 335 338 339 340 342 340 339 342 341 342 346 343 345 344 344 348 345 343 343 342 340 340 340 338 335 334 331
286 285 285 290 293 293 293 293 297 298 297 296 296 297 298 299 319 336 335 335 334 334 335 336 340 342 343 344 342 343 342 344 346 348 347 346 350 347 346 344 342 341 338 336 334 334 332 329 327
286 284 285 287 292 294 293 290 293 298 300 298 298 298 299 300 306 333 335 334 334 333 333 334 337 340 340 339 344 340 342 342 341 340 342 344 346 344 343 340 339 336 333 331 330 328 326 322 323
282 289 289 289 289 283 292 282 290 296 296 298 298 296 298 299 303 332 334 333 333 333 335 336 337 337 338 341 341 338 334 333 336 337 340 340 340 339 337 337 333 329 326 321 323 322 321 321 314
286 290 290 291 289 286 288 284 291 295 293 297 298 296 298 299 301 330 332 333 335 335 335 336 337 338 334 333 336 336 330 332 336 334 332 331 334 334 330 328 323 322 319 315 317 315 312 313 311
292 288 288 288 287 281 286 286 288 290 295 298 299 296 299 299 302 329 333 335 333 330 332 334 335 335 329 330 331 335 332 331 332 330 328 327 325 323 324 323 321 317 315 314 313 311 311 309 309
290 283 277 276 280 279 289 286 288 295 298 300 296 297 298 299 315 332 332 334 329 328 330 331 331 331 330 332 329 334 330 332 331 328 327 323 321 321 320 321 317 314 313 313 312 311 310 309 308
287 284 276 270 279 280 291 284 290 297 299 300 299 299 298 297 323 331 334 334 333 330 330 332 334 332 334 333 334 336 333 334 332 327 325 323 322 320 320 315 314 314 312 311 310 309 310 308 308
286 283 288 285 287 282 289 290 297 297 296 297 297 298 296 301 327 331 334 333 329 330 331 328 326 325 325 326 327 331 333 331 329 324 322 321 320 320 313 313 312 312 311 310 309 308 307 307 307
288 291 281 284 278 280 284 286 287 292 293 296 294 295 305 322 329 330 328 325 327 325 324 322 322 320 321 322 322 323 322 322 322 320 318 318 316 311 311 311 309 308 307 307 306 305 305 306 306
288 285 287 287 287 280 280 284 300 301 298 293 299 310 322 326 327 327 324 324 323 322 319 317 317 316 317 318 318 318 318 316 316 316 315 313 311 311 310 308 306 305 304 303 303 303 305 304 304
291 289 288 284 284 286 284 284 303 302 302 309 314 319 323 325 325 323 321 320 319 317 317 316 315 314 314 314 313 313 313 314 314 311 311 311 309 308 306 305 304 303 302 300 301 301 302 303 304
Wind_Speed
5 4 1 4 3 4 5 9 3 3 4 1 1 6 23 13 12 9 3 13 19 21 17 19 22 18 18 18 18 18 19 19 18 18 18 18 17 17 16 14 14 14 14 13 12 11 10 10 10
2 1 5 3 5 4 8 6 12 10 4 11 8 6 4 11 4 5 10 14 23 21 16 16 21 19 19 19 18 18 19 18 18 17 17 17 16 15 14 14 13 14 13 12 11 10 10 9 9
1 2 4 5 5 9 9 7 6 6 4 3 4 3 3 4 1 11 4 17 18 19 17 17 21 18 19 20 19 19 19 18 18 17 16 16 14 13 13 12 11 12 12 11 10 10 8 7 7
2 4 4 4 9 9 9 5 5 4 4 5 4 6 2 5 10 7 15 16 15 16 15 22 24 20 18 19 19 18 19 19 17 16 15 14 14 13 12 12 10 10 10 9 8 7 6 5 5
3 3 2 4 8 9 8 7 3 9 4 4 8 5 1 6 10 18 19 16 15 13 12 17 23 20 19 18 18 18 18 18 17 16 15 14 12 11 10 10 9 9 9 9 8 7 5 4 2
2 4 2 10 8 12 14 7 5 5 4 1 6 7 1 7 15 15 17 15 13 15 14 14 20 19 19 18 17 17 17 17 17 16 14 13 11 10 9 9 8 7 8 8 7 7 5 5 3
6 4 7 5 7 15 10 6 7 5 8 6 7 5 1 8 7 16 16 14 13 12 15 13 12 14 17 17 17 17 16 17 17 16 14 13 12 10 9 8 8 7 7 7 7 6 5 5 5
5 5 4 8 10 17 1 5 3 6 7 6 10 8 7 9 14 11 13 13 12 11 14 14 12 11 9 10 15 15 15 15 15 15 14 12 11 9 8 7 7 7 7 6 6 6 5 5 6
4 3 12 11 12 9 1 3 1 2 5 8 5 11 11 21 17 14 12 11 11 11 12 12 13 12 9 8 10 11 14 13 13 12 12 9 4 6 7 7 8 7 7 6 7 6 5 6 7
6 8 12 4 9 5 10 2 4 5 8 15 15 6 21 25 20 19 18 18 15 17 15 10 12 13 11 8 9 6 7 5 5 5 6 5 5 5 6 7 9 8 7 6 7 4 6 6 3
6 17 10 3 6 6 4 3 3 3 10 5 7 16 26 26 20 18 17 17 14 16 13 14 11 11 13 11 7 5 5 5 4 6 5 5 4 3 2 2 1 2 6 3 2 2 3 5 4
7 6 16 3 4 3 2 4 6 10 15 7 5 9 23 25 20 19 18 17 19 18 18 18 14 14 14 10 8 8 7 5 4 5 6 4 3 3 3 3 4 4 3 4 4 2 4 5 5
8 7 7 6 12 11 11 14 6 18 15 12 10 11 18 21 22 15 14 13 16 18 18 18 19 17 13 13 10 9 7 6 6 5 5 5 4 4 4 4 3 3 3 3 3 4 4 5 5
4 13 8 7 12 7 11 14 4 14 6 9 8 16 18 22 22 14 13 12 14 16 16 15 16 15 15 11 11 8 7 7 6 5 6 7 6 5 5 4 4 4 4 4 4 4 4 4 4
7 16 16 16 5 6 5 13 27 19 11 13 10 8 17 18 14 18 19 16 16 13 15 15 13 13 14 14 11 8 7 7 7 7 7 8 7 6 5 4 4 5 4 5 4 4 2 2 2
3 4 4 6 8 8 12 22 33 8 9 12 11 9 12 9 14 13 14 15 15 15 17 14 13 12 12 13 10 8 8 7 6 5 5 6 6 6 6 4 4 4 4 3 3 2 1 1 3
4 6 7 5 11 6 15 19 20 7 8 10 10 9 12 6 7 7 15 18 18 18 16 14 12 14 10 6 5 6 7 5 6 5 5 7 8 8 4 4 4 4 3 3 3 2 2 2 4
8 10 5 6 7 12 17 23 7 3 14 13 10 8 9 15 12 13 16 18 18 17 18 16 13 10 9 7 4 3 3 3 4 5 5 6 6 6 4 3 4 3 2 2 2 2 3 3 2
9 14 15 4 8 7 25 16 15 11 7 9 9 8 9 12 9 13 15 16 14 13 15 15 14 11 10 6 6 4 6 5 5 7 10 10 9 6 5 3 1 2 1 2 2 3 4 4 4
13 15 15 14 15 13 16 18 13 9 9 9 10 8 10 7 10 13 15 15 16 17 13 11 12 12 8 7 4 4 3 2 1 2 2 3 4 8 4 5 3 2 1 4 5 4 3 2 4
16 19 14 13 11 15 13 13 8 10 14 8 7 9 8 14 14 15 15 16 13 14 14 15 13 11 9 8 6 4 4 3 2 3 5 2 8 9 9 6 5 1 3 3 5 5 4 3 4
18 15 15 14 9 8 2 5 10 18 10 14 10 10 10 10 10 15 16 13 14 15 12 12 10 10 9 8 6 5 3 4 3 6 5 7 12 10 5 6 8 2 2 6 5 4 4 4 4
13 14 11 9 8 11 18 4 12 11 13 17 14 10 11 11 14 18 18 18 17 13 15 13 10 9 7 8 7 6 9 5 5 6 9 10 10 6 7 7 6 4 3 5 6 6 7 4 3
10 11 5 1 3 6 14 8 9 9 21 20 12 10 13 9 11 16 15 14 12 7 6 6 7 5 6 8 7 7 10 6 6 7 9 7 8 4 8 8 2 5 6 6 5 5 8 6 4
15 10 4 5 7 6 6 7 13 16 16 18 12 13 10 10 12 16 17 15 11 11 8 5 5 6 8 7 7 6 6 5 9 6 4 9 7 2 4 2 3 5 6 6 6 6 7 5 4
9 12 6 8 8 6 8 8 9 11 9 10 11 12 9 10 13 17 17 16 15 12 9 9 7 8 7 7 7 5 4 5 9 5 7 7 3 1 3 4 5 6 7 6 6 5 5 4 5
6 10 5 5 8 4 5 6 9 4 7 8 11 10 10 11 15 18 17 12 10 12 13 13 13 11 10 10 10 12 12 9 6 8 11 7 4 3 4 6 7 7 7 8 8 6 5 5 5
9 8 4 3 6 7 5 4 5 6 9 11 9 11 9 14 17 18 15 17 14 14 14 16 15 13 10 11 10 9 13 16 12 10 8 8 5 5 8 8 8 9 9 8 7 5 5 6 4
9 5 3 2 4 3 7 5 3 5 4 11 9 14 18 19 20 18 17 16 16 16 15 16 15 15 13 11 12 13 12 13 13 9 7 7 8 9 10 9 9 10 9 8 7 5 6 5 4
7 8 6 4 3 5 3 4 4 7 6 15 16 17 17 21 19 19 20 20 17 16 15 15 14 15 12 13 12 14 13 11 10 8 7 10 11 10 10 10 10 9 8 7 6 5 4 3 4
Wind_Direction
288 316 15 47 75 69 238 243 221 230 301 183 28 155 172 162 167 213 320 147 137 140 148 154 153 145 136 131 129 125 123 123 123 123 122 122 120 122 123 123 122 123 125 126 128 127 127 125 123
298 148 38 83 125 168 249 187 215 217 228 337 318 104 170 191 184 115 124 151 146 137 146 151 154 146 139 136 133 130 128 126 124 123 122 121 121 122 121 122 126 130 131 133 134 133 132 132 133
224 29 99 149 183 202 233 204 149 241 224 228 304 210 208 200 117 159 148 145 139 138 147 152 154 148 143 141 139 137 134 131 129 127 125 124 124 124 123 124 129 136 137 139 140 139 139 137 137
109 19 18 138 224 251 229 101 84 7 347 206 296 306 29 211 158 155 135 139 137 140 146 153 155 149 146 144 143 141 138 135 132 129 129 131 132 131 132 135 139 141 141 142 139 135 139 142 139
45 63 181 241 247 261 241 257 300 298 98 271 357 277 272 349 118 137 138 146 141 142 147 149 151 148 148 148 146 144 140 136 135 135 137 137 135 135 135 133 136 142 142 143 142 145 150 144 122
86 105 143 225 231 249 254 240 146 237 218 254 276 267 213 138 138 146 142 145 144 143 148 149 148 149 147 147 148 144 143 141 141 143 142 142 139 135 136 139 143 147 145 147 151 155 160 169 182
145 123 215 208 246 256 243 200 192 217 278 187 247 220 333 171 170 150 140 134 135 143 148 145 141 148 147 148 150 149 149 148 147 148 149 149 147 146 146 149 151 154 155 161 162 170 187 205 227
144 132 223 213 217 259 244 175 144 164 264 193 183 210 229 187 155 142 127 129 133 141 149 144 136 140 141 146 152 152 151 150 151 151 154 152 149 145 150 160 167 177 179 180 186 196 208 237 264
139 190 231 220 203 231 343 80 331 269 259 291 230 183 207 141 143 133 132 131 138 145 150 145 142 146 132 132 154 150 151 148 148 151 155 147 141 153 171 181 189 197 202 205 210 218 233 259 280
174 218 223 190 197 225 250 307 343 332 322 296 314 186 136 144 150 155 165 160 156 160 157 149 149 148 142 145 152 129 149 140 145 150 154 158 164 169 181 195 197 204 211 221 239 257 269 280 279
217 236 231 244 226 231 252 251 224 281 279 245 332 148 153 151 157 163 178 172 158 153 154 155 144 146 156 159 144 142 154 155 153 164 162 163 160 173 177 206 236 223 230 239 242 247 244 252 264
278 270 250 288 282 305 276 306 264 221 250 272 305 233 161 156 167 172 172 169 157 160 161 159 152 158 161 153 159 161 166 172 169 175 169 157 149 183 202 203 215 224 221 230 237 249 267 265 259
253 286 302 277 260 268 280 274 250 270 273 287 283 220 199 169 172 179 165 162 156 160 161 163 163 160 154 156 163 170 175 175 174 171 173 164 170 190 194 219 217 229 228 222 242 258 267 273 271
299 302 300 285 264 250 262 271 231 251 242 262 292 187 202 178 177 158 163 169 166 154 160 163 164 159 157 159 165 172 171 175 174 179 184 184 184 189 194 202 219 230 217 213 209 226 237 264 280
264 282 278 266 249 259 192 272 244 245 274 280 269 203 195 200 173 170 174 171 158 156 154 165 163 163 161 166 172 170 181 179 185 191 186 187 193 200 191 207 221 235 224 222 205 232 229 257 339
278 240 273 266 204 240 158 252 255 210 203 240 245 213 206 180 192 182 169 157 151 147 163 161 166 172 174 170 173 178 180 181 187 185 174 189 206 201 199 203 205 221 201 167 120 95 77 257 236
267 258 264 301 242 206 188 238 270 236 198 225 244 222 175 158 181 177 159 157 160 159 156 166 168 178 174 157 153 168 174 178 190 166 177 192 196 207 209 195 177 188 154 128 136 143 151 32 357
222 242 245 247 300 197 237 244 320 250 207 224 217 220 157 168 176 161 157 162 162 161 167 170 174 169 166 159 155 137 144 183 167 186 187 172 195 191 146 178 174 137 97 118 120 112 75 75 347
265 261 268 278 271 253 241 248 242 267 251 227 200 209 158 175 154 160 152 159 154 160 161 172 170 182 163 166 160 162 187 194 191 189 193 181 186 166 118 306 51 80 216 115 82 100 74 46 354
239 250 257 268 270 276 281 258 234 212 237 216 194 191 176 145 135 152 153 154 161 166 171 179 182 173 175 172 158 140 140 180 234 157 89 232 134 113 113 153 103 40 168 65 58 64 83 80 34
234 236 235 256 273 279 278 270 214 210 220 231 194 168 194 169 148 151 161 166 156 165 176 182 183 175 164 136 122 88 88 52 35 46 72 74 76 75 94 60 31 59 48 71 61 56 69 84 33
234 233 222 245 240 243 226 275 209 207 212 228 199 166 185 200 130 151 162 165 174 181 183 186 180 176 172 144 113 130 106 91 42 67 76 82 98 91 60 83 106 53 78 70 67 55 59 80 49
238 224 202 247 245 323 274 234 232 171 210 219 216 173 194 184 143 159 170 175 185 173 185 185 172 182 123 114 116 106 97 101 103 92 81 45 60 51 95 67 70 67 54 67 73 60 59 48 76
209 178 152 189 85 240 238 198 221 182 198 209 193 168 186 178 134 169 167 161 170 162 169 172 182 137 96 99 121 123 134 143 99 100 85 75 48 24 57 71 76 79 73 67 73 76 70 70 69
190 152 156 210 199 241 212 215 254 212 203 202 166 175 176 158 143 147 156 161 168 159 154 157 111 92 107 111 139 155 177 143 98 99 102 110 98 224 76 121 114 85 84 74 67 69 56 43 52
185 163 187 172 186 213 153 206 253 210 186 174 149 167 155 148 152 154 161 160 174 148 111 93 97 82 80 86 79 92 121 103 99 125 111 86 72 51 182 127 90 76 69 68 67 61 55 48 48
182 176 136 78 267 152 144 260 298 152 157 158 155 151 165 146 150 150 155 145 127 116 109 103 91 74 70 80 91 101 98 75 110 108 100 121 153 194 97 78 77 64 65 69 63 58 49 43 47
174 137 103 109 220 159 206 194 188 161 188 174 137 146 136 131 135 142 128 121 103 101 95 90 88 87 81 83 88 110 112 120 107 101 127 140 135 111 89 85 77 66 59 56 54 43 25 40 13
154 132 103 9 258 216 153 237 98 271 289 137 146 138 134 133 137 130 118 109 106 98 98 98 100 99 89 86 94 94 97 100 105 119 140 125 101 95 88 80 71 59 52 41 47 38 31 33 3
177 157 143 175 206 245 141 248 334 252 215 135 131 130 127 124 129 123 117 112 106 104 103 103 102 100 97 95 98 98 96 100 101 100 86 84 83 75 75 70 63 56 47 37 34 30 20 24 13